OpenBCM V1.08-5-g2f4a (Linux)

Packet Radio Mailbox

IZ3LSV

[San Dona' di P. JN]

 Login: GUEST





  
LU9DCE > KEPS     29.07.16 21:42l 183 Lines 8967 Bytes #999 (0) @ WW
BID : 4807_LU9DCE
Read: GUEST
Subj: TLE OF jul 2016
Path: IZ3LSV<IW8PGT<CX2SA<LU9DCE
Sent: 160729/2036Z @:LU9DCE.TOR.ARG.BA.SOAM #:4807 [TORTUGUITAS] $:4807_LU9DCE
From: LU9DCE@LU9DCE.TOR.ARG.BA.SOAM
To  : KEPS@ALL

OSCAR 3
1 01293U 65016F   16211.49574061 -.00000056  00000-0 -14802-5 0  9993
2 01293  70.0756 308.1556 0020030 297.6120  62.2957 14.06081301624986
OSCAR 5
1  4321U 70008B   16210.60511727 -.00000051 +00000-0 -37761-4 0  9990
2  4321 101.7965 275.0462 0028158 073.2052 095.0834 12.52169264125533
OSCAR 6
1 06236U 72082B   16210.62737998 -.00000019  00000-0  15954-3 0  9995
2 06236 101.6559 175.0687 0003690 222.1900 279.3444 12.53131661  2873
OSCAR 7
1 07530U 74089B   16210.56806938 -.00000027  00000-0  10520-3 0  9999
2 07530 101.5779 180.3223 0011561 229.6144 245.6361 12.53622245908307
OSCAR 8
1 10703U 78026B   16211.51088456  .00000272  00000-0  21689-3 0  9992
2 10703  98.8376 178.5413 0007164 134.7241 336.0472 13.99210074959467
OSCAR 10
1 14129U 83058B   16211.41333196  .00000026  00000-0  00000+0 0  9999
2 14129  26.7879  86.1281 6006769 218.9493  45.3448  2.05865092221172
OSCAR 11 (UoSAT 2)
1 14781U 84021B   16210.60348882  .00000096  00000-0  18239-4 0  9997
2 14781  97.7459 261.3323 0008745 169.6430 190.4966 14.82770239742390
OSCAR 16 (PACSAT)
1 20439U 90005D   16211.45488796 -.00000004  00000-0  14717-4 0  9993
2 20439  98.5750 147.5229 0011648  39.7472  79.8969 14.32639408385190
OSCAR 17 (DOVE)
1 20440U 90005E   16211.47137793  .00000011  00000-0  19835-4 0  9998
2 20440  98.5558 147.0872 0011443  26.6638  93.3327 14.33029808385422
OSCAR 18 (WEBERSAT)
1 20441U 90005F   16210.44196755  .00000018  00000-0  22551-4 0  9994
2 20441  98.5592 145.3983 0012252  37.4025  78.5886 14.32687323385138
OSCAR 19 (LUSAT)
1 20442U 90005G   16211.38396658 -.00000021  00000-0  83809-5 0  9992
2 20442  98.5442 145.7414 0012361  26.9127 333.2696 14.32823648385393
JAS 1B (FUJI 2)
1 20480U 90013C   16211.52359652 -.00000034  00000-0 -83307-5 0  9990
2 20480  99.0214  39.7174 0540886  42.3687  13.8815 12.83411836240338
COSMOS 2123
1 21089U 91007A   16211.32396162  .00000018  00000-0  37192-5 0  9996
2 21089  82.9252 137.4703 0027875 288.7926 183.9460 13.74637248278256
OSCAR 22 (UoSAT 5)
1 21575U 91050B   16211.50037779  .00000019  00000-0  20375-4 0  9995
2 21575  98.7617 214.0853 0007381 171.5886 188.5427 14.40750562314814
OSCAR 23 (KITSAT 1)
1 22077U 92052B   16210.60327091 -.00000056 +00000-0 +22270-4 0  9993
2 22077 066.0849 284.3530 0010060 218.3853 245.5730 12.86514186125393
KITSAT B
1 22825U 93061C   16211.48786604  .00000005  00000-0  19612-4 0  9990
2 22825  98.7626 168.0040 0008139 186.6124 173.4951 14.29962556191287
POSAT 1
1 22826U 93061D   16211.45274382 -.00000002  00000-0  16810-4 0  9998
2 22826  98.7568 168.0878 0008835 178.0762 182.0455 14.30287762191442
ITAMSAT
1 22828U 93061F   16211.45106954 -.00000001  00000-0  17024-4 0  9996
2 22828  98.7477 167.0234 0010372 148.7353 211.4448 14.30598117159797
EYESAT A
1 22829U 93061G   16211.52600553 -.00000004  00000-0  15664-4 0  9990
2 22829  98.7513 169.5593 0010401 140.1420 332.9765 14.30934516191927
RADIO ROSTO
1 23439U 94085A   16210.65129752 -.00000033 +00000-0 +28457-3 0  9990
2 23439 064.8178 022.4636 0166193 300.8237 142.9330 11.27564714888935
JAS 2
1 24278U 96046B   16211.39441030 -.00000025  00000-0  80026-5 0  9992
2 24278  98.5843 131.0869 0351406  93.3260 270.8137 13.53069548985220
TMSAT
1 25396U 98043C   16211.46004401 -.00000009  00000-0  14398-4 0  9998
2 25396  98.5418 157.5288 0002676 161.0686 199.0594 14.24401184938227
TECHSAT 1B
1 25397U 98043D   16211.38165466 -.00000020  00000-0  10013-4 0  9992
2 25397  98.5691 155.2338 0001008 157.4664 202.6559 14.23598895937861
SEDSAT 1
1 25509U 98061B   16211.09383257  .00000153  00000-0  19763-4 0  9992
2 25509  31.4319  98.1706 0346849  50.4114 312.6612 14.30208951927859
PAN SAT
1 25520U 98064B   16211.53902693  .00000752  00000-0  19025-4 0  9994
2 25520  28.4582  21.0273 0005639  29.3252 330.7659 15.27792296984886
ISS (ZARYA)
1 25544U 98067A   16211.52396573  .00000838  00000-0  19406-4 0  9994
2 25544  51.6432 206.7903 0002167  87.4571  58.1078 15.54891547 11570
OSCAR 36 (UOSAT 12)
1 25693U 99021A   16211.08180406 -.00000054  00000-0  11307-4 0  9990
2 25693  64.5561  41.4325 0003843 262.0591  98.0078 14.80666304932325
OPAL
1 26063U 00004C   16210.65139143 -.00000009 +00000-0 +16940-4 0  9997
2 26063 100.1899 148.6204 0036928 139.7228 220.6698 14.36625225864728
SAUDISAT 1A
1 26545U 00057A   16211.54532083  .00000020  00000-0  20443-4 0  9994
2 26545  64.5552   7.7059 0056161 273.0081  86.4600 14.84589565856445
TIUNGSAT 1
1 26548U 00057D   16210.61606003  .00000062  00000-0  23407-4 0  9997
2 26548  64.5516 290.9523 0050720 267.7276  91.8025 14.88777714857925
SAUDISAT 1B
1 26549U 00057E   16210.96816442  .00000016  00000-0  20416-4 0  9992
2 26549  64.5544  41.6516 0059591 276.9161  82.5169 14.83215242855708
AMSAT OSCAR 40
1 26609U 00072B   16209.82871073 -.00000002  00000-0  00000+0 0  9998
2 26609   7.7746 291.6596 7977189   3.0454 359.8388  1.25587260 72265
PCSAT
1 26931U 01043C   16210.45107477 -.00000027  00000-0  21334-4 0  9991
2 26931  67.0494 206.4499 0006186 260.4032  99.6370 14.30416859774042
SAPPHIRE
1 26932U 01043D   16211.42266156 -.00000030  00000-0  20255-4 0  9995
2 26932  67.0544 205.8309 0007148 247.9003 112.1340 14.30218510774210
RUBIN 2
1 27605U 02058A   16210.78814976  .00000142  00000-0  20455-4 0  9992
2 27605  64.5571  15.3739 0064511 207.7633 152.0521 14.74816426731788
SAUDISAT 1C
1 27607U 02058C   16211.53529122  .00000057  00000-0  28998-4 0  9999
2 27607  64.5553  31.4554 0063635 207.7037 152.0671 14.75183497731511
MOZHAYETS 4
1 27939U 03042A   16211.37751174  .00000132  00000-0  32131-4 0  9995
2 27939  97.8945   1.4388 0013402 165.2590 254.0756 14.66428457686002
AMSAT ECHO
1 28375U 04025K   16210.62635496 +.00000007 +00000-0 +15186-4 0  9999
2 28375 098.3290 145.3362 0082565 178.6830 181.4593 14.41789185635138
HAMSAT
1 28650U 05017B   16210.54688888  .00000353  00000-0  43610-4 0  9998
2 28650  97.6108 190.7442 0025070 120.3453 240.0248 14.88340183608029
SSETI-EXPRESS
1 28894U 05043E   16210.53440898  .00000064  00000-0  21806-4 0  9995
2 28894  97.8454  17.5558 0018578  98.5607 261.7701 14.61361268573068
MOZ.5/SAFIR/RUBIN 5/SL-8
1 28898U 05043G   16211.49459995  .00000065  00000-0  22633-4 0  9993
2 28898  97.8844  10.1388 0021074 120.6567 239.6715 14.60114081572743
PEHUENSAT 1
1 29712U 07001D   16210.64324378 +.00002319 +00000-0 +14666-3 0  9997
2 29712 097.5786 232.1701 0005960 315.7936 044.2816 15.10005259518361
DELFI C3
1 32789U 08021G   16211.39532414  .00001502  00000-0  11463-3 0  9998
2 32789  97.6016 269.8801 0014411 116.5023 243.7682 15.03426085448342
YUBELEINY
1 32953U 08025A   16211.13608066  .00000007  00000-0 -20342-4 0  9991
2 32953  82.5016  80.5681 0018082 272.0718  87.8291 12.43070435371285
PRISM (HITOMI)
1 33493U 09002B   16211.50520776  .00000926  00000-0  90300-4 0  9999
2 33493  98.2115  73.5820 0016966  69.0596 291.2441 14.95026763407555
STARS (KUKAI)
1 33498U 09002G   16211.49792644  .00000275  00000-0  45532-4 0  9991
2 33498  98.2928   9.2093 0009958 307.8847  93.3622 14.78284616404222
KKS-1 (KISEKI)
1 33499U 09002H   16210.65338074  .00000163  00000-0  32200-4 0  9996
2 33499  98.2933   1.3272 0008505 332.0927  27.9824 14.75017203403664
SUMBANDILA
1 35870U 09049F   16211.57808247  .00004433  00000-0  82760-4 0  9998
2 35870  97.1182 225.8701 0002266 116.4606 358.9175 15.49295339383202
XIWANG-1 (HOPE-1)
1 36122U 09072B   16211.54542744 -.00000058  00000-0 -40088-4 0  9997
2 36122 100.1396 245.6845 0006796 257.8756 102.1597 13.16335173318187
JUGNU
1 37839U 11058B   16211.47556935  .00000307  00000-0  21727-4 0  9993
2 37839  19.9604 247.1755 0018730 226.0548 274.4530 14.12547164248013
SRMSAT
1 37841U 11058D   16211.57344927  .00000300  00000-0  19763-4 0  9993
2 37841  19.9718 281.6366 0011839 136.6307   4.4675 14.10545614247673
RAX-2
1 37853U 11061D   16211.38052617  .00001256  00000-0  80633-4 0  9996
2 37853 101.7105 269.9373 0181237 319.2470  39.5298 14.99925119258225
AUBIESAT-1
1 37854U 11061E   16211.12725255  .00001184  00000-0  73553-4 0  9997
2 37854 101.7012 274.8946 0172558 310.0589  48.5594 15.02408044258395
M-CUBED/EXP-1 PRIME
1 37855U 11061F   16211.11001727  .00001111  00000-0  68346-4 0  9992
2 37855 101.7151 272.9095 0185911 314.6519  43.9661 15.01339566258287
CHIBIS-M
1 38051U 11062C   14288.65876392  .70201582  12497-4  27925-2 0  9995
2 38051 051.5964 324.1908 0006422 269.6897 186.8903 16.43533377153081
MASAT-1
1 38081U 12006E   15009.86954674  .36181825  49011-5  43735-3 0  9992
2 38081 069.4150 141.5751 0006093 101.2598 259.4750 16.49686879155248

======================================================================
Hay que darle la palabra al filósofo especializado en ética,
capaz de dotar de contenido humano a la ciencia.
		-- Juana Sánchez-Gey.
======================================================================
        __  __  __ __
|  /  \(__\|  \/  |_    BBS GF05OM TORTUGUITAS 145010Mhz
|__\__/ __/|__/\__|__   TELNET LU9DCE.DYNU.COM PUERTO 6300




Read previous mail | Read next mail


 22.12.2024 09:51:15lGo back Go up